Hutchinson, MN

4:29 PM CDT on October 17, 2017 (GMT -0500)
Hutchinson Municipal-Butler

Weather History for KHCD - June, 2013

Change the Weather History Date:

Saturday, June 22, 2013

  Actual Average Record
Temperature  
Mean Temperature 72 °F -  
Max Temperature 80 °F 79 °F 96 °F (1988)
Min Temperature 64 °F 58 °F 42 °F (1960)
Cooling Degree Days 6    
Growing Degree Days 22 (Base 50)    
Moisture  
Dew Point 67 °F    
Average Humidity 85    
Maximum Humidity 94    
Minimum Humidity 73    
Precipitation  
Precipitation 0.64 in - - ()
Sea Level Pressure  
Sea Level Pressure 29.92 in    
Wind  
Wind Speed 8 mph (East)    
Max Wind Speed 16 mph    
Max Gust Speed 30 mph    
Visibility 10 miles    
Events Rain    
Averages and records for this station are not official NWS values.
T = Trace of Precipitation, MM = Missing Value Source: NWS Daily Summary

Daily Weather History Graph

Daily Weather History Graph

Search for Another Location

Airport or City:

Trip Planner

Search our weather history database for the weather conditions in past years. The results will help you decide how hot, cold, wet, or windy it might be!

Date:

Astronomy

Jun. 22, 2013 Rise Set
Actual Time 5:31 AM CDT 9:07 PM CDT
Civil Twilight 4:54 AM CDT 9:44 PM CDT
Nautical Twilight 4:04 AM CDT 10:34 PM CDT
Astronomical Twilight 2:59 AM CDT 11:39 PM CDT
Moon 8:20 PM CDT (6/22) 4:47 AM CDT (6/22)
Length of Visible Light 16h 50m
Length of Day
15h 35m
Waxing Gibbous, 99% of the Moon is Illuminated
Jun 22
Waxing Gibbous
Jun 23
Full
Jun 29
Last Quarter
Jul 8
New
Jul 15
First Quarter

Hourly Weather History & Observations

Time (CDT) Temp. Dew Point Humidity Pressure Visibility Wind Dir Wind Speed Gust Speed Precip Events Conditions
12:00 AM 67.1 °F 63.5 °F 88% 29.90 in 10.0 mi SE 16.1 mph 29.9 mph N/A Rain Light Rain
12:14 AM 66.9 °F 62.8 °F 87% 29.92 in 10.0 mi SSE 10.4 mph 25.3 mph 0.01 in Rain Rain
12:33 AM 65.5 °F 63.0 °F 92% 29.93 in 7.0 mi SE 16.1 mph 21.9 mph 0.04 in Rain Rain
12:54 AM 65.7 °F 62.8 °F 90% 29.94 in 10.0 mi SSE 9.2 mph 17.3 mph 0.06 in Rain Rain
1:14 AM 65.8 °F 63.1 °F 91% 29.94 in 10.0 mi SSE 8.1 mph 19.6 mph 0.01 in Rain Light Rain
1:34 AM 67.1 °F 64.0 °F 90% 29.96 in 10.0 mi South 15.0 mph 18.4 mph 0.03 in Rain Rain
1:53 AM 66.6 °F 63.9 °F 91% 29.97 in 10.0 mi SSE 9.2 mph 20.7 mph 0.06 in Rain Rain
2:14 AM 66.2 °F 63.0 °F 89% 29.98 in 7.0 mi South 10.4 mph 18.4 mph 0.04 in Rain Rain
2:34 AM 65.8 °F 63.9 °F 93% 30.00 in 7.0 mi SSE 9.2 mph - 0.11 in Rain Rain
2:54 AM 65.8 °F 63.5 °F 92% 29.98 in 5.0 mi SE 6.9 mph - 0.18 in Rain Heavy Rain
3:14 AM 66.2 °F 63.5 °F 91% 29.99 in 10.0 mi South 8.1 mph - 0.03 in Rain Rain
3:34 AM 66.2 °F 63.9 °F 92% 29.98 in 7.0 mi South 5.8 mph - 0.08 in Rain Rain
3:54 AM 66.2 °F 64.4 °F 94% 29.97 in 7.0 mi SSE 6.9 mph - 0.13 in Rain Rain
4:14 AM 66.2 °F 64.0 °F 93% 29.98 in 10.0 mi South 5.8 mph - 0.03 in Rain Light Rain
4:34 AM 66.4 °F 63.9 °F 92% 29.98 in 7.0 mi South 4.6 mph - 0.08 in Rain Rain
4:54 AM 65.8 °F 64.2 °F 94% 29.99 in 7.0 mi WSW 9.2 mph - 0.13 in Rain Heavy Rain
5:14 AM 65.7 °F 63.7 °F 93% 30.01 in 10.0 mi SW 9.2 mph - 0.04 in Rain Rain
5:34 AM 65.3 °F 63.5 °F 94% 29.91 in 7.0 mi North 11.5 mph 19.6 mph 0.07 in Rain Light Rain
5:54 AM 64.9 °F 63.1 °F 94% 29.85 in 10.0 mi NE 11.5 mph - 0.08 in Rain Light Rain
6:14 AM 65.5 °F 62.6 °F 90% 29.88 in 10.0 mi SE 5.8 mph - N/A   Light Drizzle
6:31 AM 65.7 °F 62.6 °F 90% 29.90 in 10.0 mi SE 9.2 mph - N/A   Clear
6:54 AM 65.3 °F 63.0 °F 92% 29.87 in 10.0 mi ESE 6.9 mph - N/A   Clear
7:14 AM 65.7 °F 63.3 °F 92% 29.86 in 10.0 mi ESE 11.5 mph - N/A   Clear
7:33 AM 66.2 °F 63.5 °F 91% 29.88 in 10.0 mi SSE 6.9 mph - N/A   Mostly Cloudy
7:52 AM 66.2 °F 63.5 °F 91% 29.89 in 10.0 mi South 6.9 mph - N/A   Overcast
8:14 AM 66.2 °F 63.5 °F 91% 29.91 in 10.0 mi SSE 8.1 mph - N/A   Mostly Cloudy
8:33 AM 66.6 °F 64.0 °F 92% 29.97 in 10.0 mi Calm Calm - N/A   Mostly Cloudy
8:48 AM 66.6 °F 64.0 °F 92% 29.99 in 10.0 mi NW 4.6 mph - N/A   Overcast
9:05 AM 68.0 °F 64.4 °F 88% 29.99 in 10.0 mi NNW 9.2 mph - N/A   Overcast
9:25 AM 68.0 °F 64.4 °F 88% 29.98 in 10.0 mi NNE 8.1 mph - N/A   Overcast
9:45 AM 68.0 °F 64.4 °F 88% 29.97 in 10.0 mi NE 9.2 mph - N/A   Overcast
10:05 AM 68.0 °F 64.4 °F 88% 29.98 in 10.0 mi ENE 5.8 mph - N/A   Overcast
10:25 AM 68.0 °F 66.2 °F 94% 29.98 in 10.0 mi NE 5.8 mph - N/A   Mostly Cloudy
10:45 AM 68.0 °F 64.4 °F 88% 29.97 in 10.0 mi East 4.6 mph - N/A   Mostly Cloudy
11:00 AM 68.4 °F 65.7 °F 91% 29.96 in 7.0 mi East 5.8 mph - N/A   Overcast
11:14 AM 68.7 °F 65.7 °F 90% 29.95 in 7.0 mi ENE 9.2 mph - N/A   Overcast
11:33 AM 69.3 °F 66.4 °F 91% 29.95 in 7.0 mi NE 8.1 mph - N/A   Overcast
11:53 AM 70.7 °F 66.9 °F 88% 29.95 in 7.0 mi ENE 4.6 mph - N/A   Mostly Cloudy
12:14 PM 72.5 °F 67.6 °F 85% 29.93 in 10.0 mi ENE 6.9 mph - N/A   Mostly Cloudy
12:27 PM 73.2 °F 67.8 °F 83% 29.93 in 10.0 mi ESE 5.8 mph - N/A   Mostly Cloudy
12:45 PM 73.4 °F 68.0 °F 83% 29.94 in 10.0 mi Calm Calm - N/A   Overcast
1:05 PM 73.4 °F 66.2 °F 78% 29.92 in 10.0 mi East 4.6 mph - N/A   Mostly Cloudy
1:25 PM 75.2 °F 68.0 °F 78% 29.94 in 10.0 mi East 4.6 mph - N/A   Mostly Cloudy
1:45 PM 75.2 °F 68.0 °F 78% 29.93 in 10.0 mi Calm Calm - N/A   Mostly Cloudy
2:01 PM 75.6 °F 67.5 °F 76% 29.92 in 10.0 mi ESE 3.5 mph - N/A   Mostly Cloudy
2:14 PM 75.9 °F 68.2 °F 77% 29.92 in 10.0 mi Calm Calm - N/A   Mostly Cloudy
2:34 PM 76.3 °F 67.8 °F 75% 29.92 in 10.0 mi ENE 3.5 mph - N/A   Mostly Cloudy
2:54 PM 76.8 °F 68.7 °F 76% 29.92 in 10.0 mi Calm Calm - N/A   Mostly Cloudy
3:14 PM 76.8 °F 68.7 °F 76% 29.92 in 10.0 mi Calm Calm - N/A   Scattered Clouds
3:34 PM 77.5 °F 69.4 °F 76% 29.92 in 10.0 mi Calm Calm - N/A   Mostly Cloudy
3:54 PM 77.9 °F 69.3 °F 75% 29.93 in 10.0 mi Calm Calm - N/A   Mostly Cloudy
4:12 PM 78.4 °F 70.2 °F 76% 29.92 in 10.0 mi East 6.9 mph - N/A   Mostly Cloudy
4:34 PM 79.0 °F 69.6 °F 73% 29.91 in 10.0 mi NNE 3.5 mph - N/A   Mostly Cloudy
4:54 PM 79.9 °F 70.9 °F 74% 29.90 in 10.0 mi East 5.8 mph - N/A   Scattered Clouds
5:14 PM 79.7 °F 71.2 °F 75% 29.89 in 10.0 mi East 5.8 mph - N/A   Scattered Clouds
5:18 PM 78.8 °F 70.9 °F 77% 29.89 in 10.0 mi East 5.8 mph - N/A   Scattered Clouds
5:45 PM 77.0 °F 69.8 °F 78% 29.89 in 10.0 mi ENE 5.8 mph - N/A   Mostly Cloudy
6:05 PM 78.8 °F 71.6 °F 78% 29.88 in 10.0 mi NE 8.1 mph - N/A   Scattered Clouds
6:25 PM 77.0 °F 69.8 °F 78% 29.88 in 10.0 mi ENE 6.9 mph - N/A   Mostly Cloudy
6:45 PM 77.0 °F 69.8 °F 78% 29.88 in 10.0 mi ENE 9.2 mph - N/A   Scattered Clouds
7:05 PM 77.0 °F 69.8 °F 78% 29.88 in 10.0 mi ENE 6.9 mph - N/A   Clear
7:25 PM 77.0 °F 69.8 °F 78% 29.87 in 10.0 mi ENE 8.1 mph - N/A   Clear
7:45 PM 77.0 °F 69.8 °F 78% 29.87 in 10.0 mi ENE 6.9 mph - N/A   Clear
8:05 PM 75.2 °F 69.8 °F 83% 29.87 in 10.0 mi ENE 8.1 mph - N/A   Scattered Clouds
8:25 PM 75.2 °F 69.8 °F 83% 29.86 in 10.0 mi ENE 4.6 mph - N/A   Scattered Clouds
8:45 PM 75.2 °F 69.8 °F 83% 29.85 in 10.0 mi ENE 5.8 mph - N/A   Scattered Clouds
9:00 PM 74.5 °F 69.6 °F 85% 29.85 in 10.0 mi ENE 5.8 mph - N/A   Clear
9:14 PM 74.5 °F 69.8 °F 85% 29.86 in 10.0 mi ENE 5.8 mph - N/A   Clear
9:33 PM 74.7 °F 69.4 °F 84% 29.86 in 10.0 mi East 6.9 mph - N/A   Clear
9:54 PM 74.3 °F 69.3 °F 84% - 10.0 mi ENE 6.9 mph - N/A   Clear
10:14 PM 74.1 °F 69.1 °F 84% 29.86 in 10.0 mi ENE 8.1 mph - N/A   Clear
10:33 PM 74.3 °F 69.1 °F 84% 29.86 in 10.0 mi ENE 8.1 mph - N/A   Clear
10:54 PM 74.1 °F 68.9 °F 84% 29.85 in 10.0 mi ENE 9.2 mph - N/A   Scattered Clouds
11:14 PM 74.3 °F 68.9 °F 83% 29.85 in 10.0 mi ENE 8.1 mph - N/A   Mostly Cloudy
11:33 PM 73.0 °F 69.6 °F 89% 29.83 in 10.0 mi ENE 8.1 mph - N/A Rain Light Rain
11:54 PM 72.9 °F 69.8 °F 90% 29.83 in 10.0 mi ENE 6.9 mph - N/A   Scattered Clouds